Weather History for Iron Mountain, MI

Change the Weather History Date:

Friday, March 2, 2012

  Actual Average Record
Temperature  
Mean Temperature 27 °F -  
Max Temperature 33 °F 35 °F 56 °F (1993)
Min Temperature 21 °F 13 °F -24 °F (1989)
Degree Days  
Heating Degree Days 38    
Moisture  
Dew Point 28 °F    
Average Humidity 94    
Maximum Humidity 100    
Minimum Humidity 75    
Precipitation  
Precipitation 0.00 in - - ()
Sea Level Pressure  
Sea Level Pressure 29.59 in    
Wind  
Wind Speed 3 mph (NNW)    
Max Wind Speed 10 mph    
Max Gust Speed -    
Visibility 3 miles    
Events Fog , Snow    
Averages and records for this station are not official NWS values.
T = Trace of Precipitation, MM = Missing Value Source: NWS Daily Summary

Daily Weather History Graph

Daily Weather History Graph

Search for Another Location

Airport:

Trip Planner

Search our weather history database for the weather conditions in past years. The results will help you decide how hot, cold, wet, or windy it might be!

Date:

Astronomy

Mar. 02, 2012 Rise Set
Actual Time 6:28 AM CST 5:41 PM CST
Civil Twilight 5:58 AM CST 6:11 PM CST
Nautical Twilight 5:24 AM CST 6:45 PM CST
Astronomical Twilight 4:49 AM CST 7:20 PM CST
Moon 11:38 AM CST (3/2) 2:32 AM CST (3/2)
Length of Visible Light 12h 12m
Length of Day
11h 12m
Waxing Gibbous, 66% of the Moon is Illuminated
Mar 2
Waxing Gibbous
Mar 8
Full
Mar 14
Last Quarter
Mar 22
New
Mar 30
First Quarter

Hourly Weather History & Observations

Time (CST) Temp. Windchill Dew Point Humidity Pressure Visibility Wind Dir Wind Speed Gust Speed Precip Events Conditions
12:54 AM 30.9 °F 27.5 °F 28.9 °F 92% 29.80 in 9.0 mi SSW 3.5 mph - N/A   Overcast
1:09 AM 30.2 °F 26.7 °F 28.4 °F 93% 29.74 in 10.0 mi SSW 3.5 mph - N/A   Overcast
1:54 AM 30.0 °F - 28.9 °F 96% 29.78 in 8.0 mi Calm Calm - N/A   Overcast
2:54 AM 30.0 °F - 28.9 °F 96% 29.77 in 6.0 mi Calm Calm - N/A   Overcast
3:54 AM 28.9 °F - 28.0 °F 96% 29.75 in 4.0 mi Calm Calm - N/A   Overcast
4:54 AM 27.0 °F - 26.1 °F 96% 29.74 in 3.0 mi Calm Calm - N/A   Overcast
5:00 AM 26.6 °F - 26.6 °F 100% 29.69 in 1.8 mi Calm Calm - N/A   Overcast
5:11 AM 26.6 °F - 26.6 °F 100% 29.69 in 0.2 mi Calm Calm - N/A Fog Light Freezing Fog
5:51 AM 21.2 °F - 21.2 °F 100% 29.70 in 0.2 mi Calm Calm - N/A Fog Light Freezing Fog
5:54 AM 21.9 °F - 21.9 °F 100% 29.75 in 0.2 mi Calm Calm - N/A Fog Light Freezing Fog
6:21 AM 23.0 °F - 21.2 °F 93% 29.71 in 0.5 mi Calm Calm - N/A Fog Light Freezing Fog
6:36 AM 24.8 °F - 24.8 °F 100% 29.71 in 1.5 mi Calm Calm - N/A   Overcast
6:44 AM 24.8 °F - 24.8 °F 100% 29.71 in 2.5 mi Calm Calm - N/A   Overcast
6:54 AM 26.1 °F - 25.0 °F 96% 29.76 in 3.0 mi Calm Calm - N/A   Overcast
7:15 AM 28.4 °F 21.2 °F 26.6 °F 93% 29.69 in 5.0 mi North 6.9 mph - N/A   Overcast
7:26 AM 26.6 °F 21.2 °F 26.6 °F 100% 29.68 in 1.8 mi North 4.6 mph - N/A   Overcast
7:42 AM 26.6 °F 21.2 °F 26.6 °F 100% 29.67 in 0.8 mi North 4.6 mph - N/A   Overcast
7:54 AM 27.0 °F 20.5 °F 27.0 °F 100% 29.73 in 0.5 mi NNE 5.8 mph - N/A Fog Light Freezing Fog
8:34 AM 26.6 °F 21.2 °F 26.6 °F 100% 29.67 in 1.0 mi NNW 4.6 mph - N/A   Overcast
8:54 AM 28.0 °F - 27.0 °F 96% 29.73 in 3.0 mi Calm Calm - N/A   Overcast
9:43 AM 28.4 °F - 28.4 °F 100% 29.68 in 6.0 mi Calm Calm - N/A   Overcast
9:54 AM 28.0 °F - 27.0 °F 96% 29.73 in 5.0 mi Calm Calm - N/A   Overcast
10:54 AM 30.0 °F - 28.0 °F 92% 29.69 in 7.0 mi Calm Calm - N/A   Overcast
11:54 AM 32.0 °F - 28.0 °F 85% 29.66 in 10.0 mi Calm Calm - N/A   Overcast
12:14 PM 32.0 °F - 28.4 °F 87% 29.60 in 10.0 mi Calm Calm - N/A   Overcast
12:54 PM 32.0 °F 27.5 °F 27.0 °F 82% 29.62 in 10.0 mi Variable 4.6 mph - N/A   Overcast
1:29 PM 33.8 °F - 26.6 °F 75% 29.56 in 10.0 mi Calm Calm - N/A   Overcast
1:54 PM 33.1 °F 30.0 °F 27.0 °F 78% 29.59 in 10.0 mi North 3.5 mph - N/A   Overcast
2:54 PM 33.1 °F 30.0 °F 27.0 °F 78% 29.57 in 10.0 mi North 3.5 mph - N/A   Overcast
3:51 PM 33.8 °F 29.6 °F 28.4 °F 81% 29.51 in 2.0 mi North 4.6 mph - 0.00 in Snow Light Snow
3:54 PM 32.0 °F 27.5 °F 28.0 °F 85% 29.55 in 1.8 mi North 4.6 mph - 0.00 in Snow Light Snow
4:54 PM 32.0 °F 24.8 °F 30.0 °F 92% 29.53 in 1.8 mi North 8.1 mph - 0.00 in Snow Light Snow
5:26 PM 30.2 °F 24.3 °F 30.2 °F 100% 29.47 in 0.8 mi North 5.8 mph - 0.00 in Snow Light Snow
5:35 PM 30.2 °F 25.4 °F 30.2 °F 100% 29.46 in 1.0 mi North 4.6 mph - 0.00 in Snow Light Snow
5:42 PM 30.2 °F 26.7 °F 30.2 °F 100% 29.46 in 1.2 mi North 3.5 mph - 0.00 in Snow Light Snow
5:46 PM 30.2 °F 26.7 °F 30.2 °F 100% 29.46 in 1.5 mi North 3.5 mph - 0.00 in Snow Light Snow
5:54 PM 30.9 °F - 30.0 °F 96% 29.51 in 1.5 mi Calm Calm - 0.00 in Snow Light Snow
6:23 PM 30.2 °F 23.4 °F 30.2 °F 100% 29.45 in 1.5 mi North 6.9 mph - 0.00 in Snow Light Snow
6:31 PM 30.2 °F 24.3 °F 30.2 °F 100% 29.45 in 2.0 mi NNW 5.8 mph - 0.00 in Snow Light Snow
6:54 PM 30.9 °F 23.5 °F 30.0 °F 96% 29.49 in 3.0 mi North 8.1 mph - 0.00 in Snow Light Snow
7:05 PM 30.2 °F 21.3 °F 28.4 °F 93% 29.45 in 1.8 mi North 10.4 mph - 0.00 in Snow Light Snow
7:17 PM 30.2 °F 22.6 °F 28.4 °F 93% 29.44 in 1.8 mi NNW 8.1 mph - 0.00 in Snow Light Snow
7:23 PM 30.2 °F 23.4 °F 28.4 °F 93% 29.44 in 1.8 mi NNW 6.9 mph - 0.00 in Snow Light Snow
7:54 PM 30.9 °F 22.8 °F 28.9 °F 92% 29.47 in 1.2 mi NNW 9.2 mph - 0.00 in Snow Light Snow
8:25 PM 30.2 °F 21.9 °F 28.4 °F 93% 29.42 in 1.5 mi NNW 9.2 mph - 0.00 in Snow Light Snow
8:54 PM 30.9 °F 23.5 °F 28.9 °F 92% 29.45 in 1.8 mi NNW 8.1 mph - 0.00 in Snow Light Snow
9:05 PM 30.2 °F 22.6 °F 28.4 °F 93% 29.40 in 1.2 mi NW 8.1 mph - 0.00 in Snow Light Snow
9:54 PM 30.9 °F 22.8 °F 28.9 °F 92% 29.44 in 1.2 mi NW 9.2 mph - 0.00 in Snow Light Snow
10:54 PM 30.9 °F 22.2 °F 28.9 °F 92% 29.42 in 1.0 mi NW 10.4 mph - 0.00 in Snow Light Snow
11:34 PM 30.2 °F 21.3 °F 28.4 °F 93% 29.36 in 0.8 mi NW 10.4 mph - 0.00 in Snow Light Snow
11:50 PM 30.2 °F 21.3 °F 28.4 °F 93% 29.36 in 1.0 mi NW 10.4 mph - 0.00 in Snow Light Snow
11:54 PM 30.0 °F 21.7 °F 28.9 °F 96% 29.40 in 1.2 mi NW 9.2 mph - 0.00 in Snow Light Snow